Temperature
16 16 16 16 16 16 17 17 17 17 17 17 17 17 16 16 16 16 16 16 15 15 15 14 14 13 12 12 12 11 11 11 11 11 11 11 11 11 11 10 10 9 8
15 15 15 15 16 16 16 16 16 16 16 17 17 17 17 17 17 17 16 16 16 15 15 15 14 14 13 12 12 11 11 11 11 11 11 10 10 11 11 10 10 9 8
14 15 15 15 15 16 16 16 16 16 16 16 16 16 16 16 16 16 16 16 16 16 15 15 15 14 14 13 13 12 11 11 11 11 11 11 11 11 10 10 10 9 8
13 14 14 15 15 15 15 15 16 16 16 16 16 16 16 15 16 16 16 16 16 16 16 15 15 15 14 14 13 12 12 11 11 11 11 10 11 10 10 9 9 9 8
12 13 13 14 14 14 15 15 15 15 15 15 15 15 15 15 15 15 15 16 16 16 15 15 15 15 14 14 13 13 12 11 11 11 11 10 10 10 9 9 9 8 8
12 12 13 13 13 14 14 14 15 15 15 15 15 15 15 15 15 15 15 15 15 15 15 15 15 15 14 14 14 13 12 11 11 10 10 10 10 9 9 8 8 7 7
11 12 12 12 12 13 13 13 14 14 14 14 14 15 15 15 15 15 15 15 15 15 15 15 15 15 14 14 13 12 12 11 10 10 9 9 9 8 8 7 7 6 5
11 11 11 11 11 12 12 12 13 13 13 14 14 14 14 14 14 14 14 14 14 14 14 14 14 14 14 13 12 12 11 10 9 9 8 8 7 7 6 6 5 4 4
10 10 10 10 10 10 11 11 11 12 12 13 13 13 13 13 13 13 13 13 13 14 13 13 13 13 13 12 12 11 10 9 8 7 7 6 6 5 5 4 4 3 2
9 9 9 9 9 9 9 10 10 10 11 11 12 12 13 13 13 13 13 12 12 12 12 12 12 12 11 11 10 9 8 8 7 6 5 5 4 4 4 3 2 2 1
8 8 8 8 8 8 8 9 9 9 10 10 11 11 12 12 12 12 11 11 11 11 11 11 10 10 10 10 9 8 7 6 5 5 4 4 3 3 2 1 1 1 -0
7 7 7 7 7 7 7 8 8 9 9 9 10 10 10 10 10 10 10 10 9 9 9 9 9 9 9 8 7 6 5 4 4 3 3 3 2 2 1 0 -0 -1 -1
6 6 6 6 6 6 6 7 7 7 8 8 9 9 9 9 9 9 9 9 8 8 8 8 8 7 7 6 5 4 4 3 3 2 2 2 1 1 -0 -1 -1 -2 -2
5 4 4 5 5 5 5 6 6 6 7 7 7 8 8 8 7 8 8 7 7 7 7 6 6 5 4 4 3 3 3 2 2 2 1 1 0 -0 -1 -1 -2 -3 -3
3 3 3 4 4 4 5 5 5 5 5 6 6 6 6 6 6 6 6 5 5 5 5 4 3 3 2 2 2 2 2 2 1 1 1 0 -0 -1 -2 -2 -3 -4 -5
2 2 2 3 3 3 3 4 4 4 4 4 4 4 4 4 4 4 4 3 3 2 2 2 2 1 1 1 1 1 1 1 0 -0 -0 -1 -1 -2 -3 -3 -4 -5 -6
1 1 1 1 2 2 2 3 2 2 3 3 2 2 3 2 2 2 2 1 1 1 1 1 0 0 0 1 1 1 0 -0 -1 -1 -1 -2 -3 -3 -4 -4 -5 -5 -6
1 1 1 1 1 1 1 2 1 1 1 1 1 1 1 1 0 0 0 -0 -0 -0 -0 -0 -0 -0 -0 -0 -0 -1 -1 -1 -2 -2 -3 -3 -4 -4 -5 -6 -6 -6 -6
1 0 -0 0 0 0 0 1 0 0 0 -0 -0 -1 -0 -1 -1 -1 -1 -1 -1 -1 -1 -0 -1 -1 -1 -1 -2 -2 -2 -3 -3 -3 -4 -4 -5 -5 -6 -7 -7 -7 -7
0 -0 -0 -0 -0 -0 -0 -0 -0 -1 -1 -1 -1 -1 -1 -1 -1 -1 -1 -1 -1 -1 -1 -1 -1 -2 -2 -2 -3 -3 -3 -4 -4 -5 -5 -5 -6 -6 -7 -8 -8 -7 -7
0 -0 -1 -1 -1 -1 -1 -1 -1 -1 -1 -1 -1 -1 -1 -1 -1 -1 -1 -1 -1 -1 -1 -1 -2 -2 -3 -4 -4 -4 -5 -5 -5 -5 -6 -6 -6 -7 -8 -8 -8 -8 -8
-0 -0 -1 -1 -1 -1 -1 -1 -1 -1 -1 -1 -1 -1 -1 -1 -1 -1 -1 -1 -1 -1 -2 -2 -3 -3 -4 -4 -5 -5 -6 -6 -6 -6 -6 -7 -7 -8 -8 -8 -8 -8 -8
0 -0 -1 -1 -1 -1 -1 -1 -1 -1 -1 -1 -1 -1 -1 -1 -1 -1 -1 -2 -2 -2 -3 -3 -4 -4 -4 -5 -5 -6 -6 -7 -7 -7 -7 -8 -7 -7 -7 -7 -8 -8 -8
0 -0 -0 -1 -1 -1 -1 -1 -1 -1 -1 -1 -1 -1 -1 -1 -1 -2 -2 -2 -3 -3 -3 -4 -4 -5 -5 -6 -6 -7 -7 -7 -7 -7 -7 -7 -8 -8 -8 -8 -8 -8 -8
1 1 0 0 -0 -0 -0 -1 -1 -1 -1 -1 -1 -1 -1 -2 -2 -2 -2 -3 -3 -4 -4 -4 -5 -5 -6 -7 -7 -8 -8 -8 -8 -8 -8 -8 -8 -8 -8 -8 -8 -8 -8
1 1 1 1 0 -0 -0 -0 -1 -1 -1 -1 -1 -1 -2 -2 -2 -3 -3 -3 -4 -4 -5 -5 -6 -6 -7 -7 -7 -8 -8 -8 -8 -8 -8 -8 -8 -8 -8 -8 -7 -8 -8
Wind_Speed
10 8 9 9 9 8 10 10 10 12 10 9 12 12 14 13 12 12 16 18 18 19 16 9 10 10 11 11 10 6 5 3 4 4 2 2 1 2 2 4 4 5 6
11 9 8 8 8 9 9 10 11 11 11 11 11 9 10 10 12 10 11 17 17 18 16 13 12 12 10 11 11 7 5 4 5 4 3 2 2 2 1 2 4 4 5
11 10 8 7 7 8 8 8 10 10 11 11 7 4 5 3 6 8 11 13 17 18 16 15 13 13 13 13 14 12 10 6 4 3 4 5 6 3 1 1 2 3 3
6 7 7 7 6 6 6 7 8 8 9 9 8 10 11 12 12 12 13 13 15 16 17 15 14 14 13 13 14 12 8 8 6 3 1 2 3 4 3 1 1 2 3
7 8 8 7 6 6 5 4 5 6 7 8 10 11 13 12 9 8 10 11 11 13 14 14 13 14 12 13 13 12 10 7 7 6 4 3 2 1 3 3 2 1 2
10 9 9 9 9 8 7 6 5 5 5 6 8 11 13 12 10 9 11 11 9 10 12 12 13 13 11 12 12 12 12 8 7 6 5 4 4 3 3 3 2 2 1
10 11 12 12 11 11 10 9 8 7 6 6 7 9 12 12 13 13 13 11 9 10 14 13 13 12 10 10 9 9 9 8 8 7 4 3 3 3 3 3 2 1 1
9 10 10 9 9 10 10 9 9 9 8 7 7 8 9 8 9 11 10 11 11 10 10 12 11 10 10 10 9 8 8 7 8 8 7 6 4 3 3 3 4 2 1
10 10 10 10 10 10 10 9 9 10 9 8 8 7 7 7 8 8 8 7 6 5 8 9 10 10 11 11 11 9 9 9 9 9 8 6 5 4 4 3 3 4 2
10 11 10 10 10 10 9 9 8 8 9 8 7 5 5 5 5 4 5 5 6 7 10 10 11 11 12 12 12 11 11 11 9 8 9 7 5 4 3 3 3 3 3
10 10 11 11 10 10 9 8 9 8 8 7 6 4 3 1 1 3 4 6 7 10 11 12 13 13 13 13 13 12 13 12 10 9 8 7 5 4 3 2 2 2 3
9 9 10 11 10 10 10 9 9 8 7 5 4 3 2 2 3 4 6 8 9 10 12 13 13 14 14 13 14 14 12 12 11 9 8 6 4 4 3 2 2 3 4
9 10 10 10 10 10 9 9 8 7 6 5 5 5 5 5 6 7 8 10 11 12 12 13 14 14 14 14 14 13 12 11 10 8 7 5 4 3 2 2 3 3 4
8 9 10 10 9 9 9 8 8 7 6 6 6 7 7 7 8 9 11 12 12 13 14 14 14 14 14 14 14 13 12 11 9 7 6 4 3 2 2 3 4 4 4
8 9 9 9 9 9 8 8 8 8 7 8 8 9 10 11 12 13 13 14 14 15 15 16 15 14 12 12 13 12 11 10 8 6 4 3 2 1 2 2 3 4 4
8 8 9 9 9 8 7 7 8 8 8 10 10 10 12 13 14 14 15 15 15 15 15 15 14 13 11 17 17 12 9 8 7 5 4 3 3 4 5 7 7 6 5
6 7 7 7 7 6 6 7 8 9 10 11 11 11 13 14 13 14 14 14 14 14 14 14 13 13 14 16 15 13 8 7 6 4 3 2 2 4 4 7 9 9 11
5 5 5 5 5 6 6 7 8 9 10 11 11 11 12 13 13 13 14 13 12 12 12 12 11 10 11 13 13 12 7 6 5 4 2 0 3 4 6 5 4 5 6
3 3 4 4 6 7 7 8 9 9 10 10 10 10 11 12 12 12 12 11 11 11 10 9 9 9 8 10 10 9 5 4 3 2 1 2 4 9 11 5 5 6 7
4 4 5 6 7 7 7 9 9 9 9 9 9 9 10 11 11 11 10 9 10 10 9 9 8 7 5 7 8 8 4 3 2 1 2 5 7 10 11 6 4 7 8
5 5 6 6 6 6 7 9 8 8 7 8 9 10 10 10 10 10 9 9 9 10 9 9 8 7 7 7 8 7 3 1 0 1 2 4 10 12 12 11 5 9 10
5 5 6 6 6 6 7 8 7 6 7 9 9 9 9 8 8 9 9 8 8 9 7 7 6 5 5 7 7 7 6 4 1 2 3 5 12 13 13 10 10 13 10
5 5 6 6 6 6 6 7 5 6 8 9 9 9 9 8 8 8 8 7 6 6 5 4 4 3 4 5 8 7 8 8 4 3 8 10 12 12 8 10 12 9 5
5 5 6 6 5 5 6 6 5 6 8 9 8 7 8 8 7 6 5 5 5 5 4 4 3 2 3 3 3 2 4 6 5 3 6 10 11 9 9 8 7 5 5
5 5 6 6 6 5 5 5 6 7 8 8 7 7 7 7 6 6 5 5 3 4 3 2 1 1 2 4 7 5 3 3 4 3 3 3 4 5 5 5 5 5 5
6 6 6 6 6 6 6 5 5 7 8 7 6 5 5 5 5 5 5 8 7 8 7 5 2 1 4 7 9 9 10 10 10 5 3 4 5 5 6 7 7 7 7
Wind_Direction
268 258 244 242 240 236 230 228 224 223 213 204 208 213 217 217 215 216 214 209 205 199 197 194 184 182 186 184 172 149 144 139 143 120 97 34 55 166 188 186 182 187 184
289 281 266 251 238 234 228 227 226 226 216 211 209 210 213 218 218 216 212 210 205 200 198 194 191 189 185 178 177 160 149 149 168 150 138 203 288 252 184 183 188 189 179
294 300 299 280 263 251 239 233 228 228 224 217 208 195 191 201 206 212 215 211 206 202 200 197 192 190 187 189 187 179 165 164 183 191 159 166 214 204 244 217 184 181 174
315 314 317 313 297 276 264 246 238 234 230 217 206 203 209 216 216 215 217 211 205 203 201 197 195 192 192 190 189 184 175 156 167 178 154 127 143 157 186 240 227 194 188
355 353 348 333 327 321 310 288 265 251 242 227 214 212 219 224 221 213 213 211 207 204 201 196 194 193 194 191 184 181 180 173 167 163 154 137 85 113 155 189 211 233 217
8 8 3 1 354 349 347 338 317 288 267 244 231 222 223 223 217 213 214 213 208 204 201 195 195 193 191 189 185 181 180 177 164 158 153 152 154 172 164 167 178 213 265
6 3 0 356 350 345 343 339 331 312 298 269 247 235 232 226 221 218 218 214 210 209 204 196 194 190 186 177 168 167 168 161 154 148 134 123 118 130 136 130 135 171 315
356 352 345 340 335 331 332 331 326 315 309 295 273 256 244 235 231 224 218 215 216 213 198 191 185 176 165 160 153 149 145 139 134 127 121 114 105 107 116 128 136 140 313
345 343 339 336 329 323 318 316 313 311 311 305 293 277 259 242 235 226 218 214 204 179 167 165 158 152 149 146 143 139 132 127 120 120 116 110 102 94 92 108 133 148 206
341 340 338 333 327 317 310 312 310 304 304 307 300 289 275 262 245 218 203 182 159 146 145 144 143 140 138 137 130 127 125 119 116 115 112 105 105 103 102 116 120 141 178
335 334 331 329 325 322 321 321 320 319 320 318 317 312 302 286 195 172 161 149 139 140 142 140 136 134 132 130 125 123 122 118 113 110 112 111 116 118 121 125 144 170 180
336 336 334 334 336 335 334 334 331 331 328 331 342 350 19 73 101 116 124 126 128 130 130 130 128 127 125 123 122 120 118 117 115 112 111 112 116 118 132 154 189 208 209
343 344 344 344 342 341 342 344 344 344 347 7 28 38 50 74 90 103 109 113 115 116 117 119 120 119 117 114 113 112 109 107 106 106 108 111 116 132 163 199 219 230 234
346 347 346 344 343 345 348 350 353 358 13 35 55 61 65 76 86 92 97 102 106 108 108 108 107 107 107 107 107 106 104 101 97 96 100 108 127 177 206 224 234 238 245
349 350 348 344 345 351 357 5 9 13 34 55 64 70 75 79 83 86 91 94 96 99 101 101 99 99 100 104 106 104 104 104 102 97 93 93 98 246 233 246 242 236 244
344 346 350 350 352 355 4 18 26 30 51 65 70 77 81 83 85 88 91 92 93 95 96 96 97 95 98 104 104 105 104 105 105 102 90 80 59 19 352 321 304 287 270
345 351 352 352 356 5 25 42 45 51 61 67 71 76 84 86 88 91 91 91 92 93 92 92 94 97 102 104 104 106 107 108 109 107 90 60 13 359 315 305 306 304 302
352 354 355 3 14 27 45 56 58 62 66 69 73 78 85 88 89 89 90 89 90 90 91 92 95 98 103 106 108 110 106 107 107 105 105 37 307 304 295 273 275 274 280
15 13 20 32 40 45 56 65 64 65 69 71 74 78 85 89 89 89 89 89 91 88 87 88 92 94 97 106 113 114 109 101 91 77 43 320 294 306 315 316 298 292 288
52 48 48 56 58 56 66 74 70 68 69 72 76 79 83 88 88 88 87 85 86 87 85 80 76 78 76 97 103 111 103 94 78 353 312 322 320 316 322 318 305 301 296
74 68 66 63 61 66 77 78 74 71 73 77 78 78 80 83 86 85 85 89 90 87 83 80 68 61 63 69 73 81 99 106 178 298 300 304 324 325 324 325 318 299 307
91 84 80 69 60 68 83 84 77 77 80 81 80 76 74 78 83 85 82 83 91 91 87 85 72 49 39 49 49 39 25 14 359 316 298 303 326 330 329 325 313 314 324
113 103 99 86 70 67 86 94 87 90 90 86 81 78 75 71 75 84 88 82 82 91 89 85 77 52 31 20 28 20 6 356 352 322 328 332 334 334 331 321 321 329 325
131 123 114 104 90 82 87 95 97 94 92 88 83 81 80 75 68 70 78 87 89 90 89 85 76 46 9 340 330 328 335 343 338 337 339 339 337 335 326 323 323 312 297
142 136 129 122 116 109 101 97 101 104 98 90 86 82 80 84 77 70 75 90 97 127 119 120 117 75 337 336 353 353 331 328 316 347 354 341 334 332 325 317 307 302 306
146 139 135 132 128 121 112 107 110 115 112 104 94 92 91 86 83 79 66 68 77 73 73 75 75 359 352 351 352 348 344 342 340 355 340 324 319 315 316 317 317 313 308
Height
1478 1480 1481 1482 1483 1484 1486 1487 1489 1491 1493 1494 1496 1497 1498 1501 1503 1506 1508 1511 1513 1515 1517 1519 1521 1523 1525 1527 1530 1532 1533 1535 1537 1538 1538 1539 1539 1538 1538 1538 1538 1538 1538
1471 1472 1473 1473 1475 1476 1478 1480 1482 1484 1486 1487 1489 1490 1492 1494 1496 1499 1502 1505 1507 1509 1511 1513 1515 1517 1519 1522 1524 1526 1528 1530 1532 1533 1534 1535 1535 1533 1534 1534 1534 1534 1534
1467 1466 1466 1467 1468 1469 1471 1473 1475 1478 1480 1481 1483 1484 1485 1486 1489 1491 1494 1497 1500 1502 1504 1506 1509 1511 1513 1514 1517 1519 1522 1524 1526 1528 1529 1529 1528 1529 1529 1529 1529 1530 1529
1464 1464 1463 1463 1463 1464 1466 1467 1469 1471 1473 1475 1475 1476 1477 1478 1480 1483 1486 1489 1492 1495 1497 1499 1502 1504 1506 1507 1510 1512 1515 1517 1519 1521 1522 1524 1524 1524 1524 1525 1525 1525 1525
1464 1463 1462 1462 1462 1462 1462 1463 1464 1465 1467 1468 1469 1470 1470 1472 1474 1476 1478 1481 1484 1486 1489 1492 1494 1496 1498 1501 1503 1505 1508 1510 1512 1514 1515 1517 1518 1519 1519 1519 1520 1520 1520
1464 1463 1462 1461 1461 1460 1460 1460 1460 1461 1461 1462 1462 1463 1464 1465 1466 1468 1470 1472 1475 1477 1480 1483 1486 1488 1491 1493 1496 1498 1501 1503 1505 1507 1509 1510 1511 1512 1513 1514 1514 1515 1516
1464 1462 1461 1460 1459 1458 1458 1457 1457 1457 1457 1456 1456 1457 1457 1458 1459 1460 1462 1464 1465 1468 1471 1474 1477 1480 1483 1486 1489 1491 1494 1496 1499 1501 1502 1504 1505 1506 1507 1508 1509 1509 1510
1464 1462 1460 1458 1457 1455 1454 1453 1453 1452 1452 1451 1451 1451 1451 1451 1452 1453 1454 1456 1457 1460 1463 1466 1469 1472 1475 1478 1482 1484 1487 1490 1492 1494 1496 1498 1499 1500 1501 1503 1504 1504 1504
1463 1461 1458 1456 1454 1452 1451 1449 1448 1447 1446 1445 1445 1445 1445 1445 1445 1446 1447 1448 1450 1452 1454 1458 1461 1464 1468 1471 1475 1478 1481 1484 1486 1488 1490 1492 1494 1496 1496 1497 1498 1500 1499
1461 1458 1456 1453 1450 1448 1446 1444 1443 1442 1441 1440 1439 1438 1438 1438 1438 1439 1440 1441 1442 1445 1447 1450 1453 1457 1461 1465 1468 1472 1475 1478 1480 1483 1485 1487 1489 1491 1492 1493 1494 1494 1494
1459 1456 1453 1450 1447 1444 1442 1439 1438 1436 1435 1434 1433 1433 1432 1432 1432 1432 1433 1435 1436 1439 1442 1445 1448 1452 1456 1460 1463 1467 1470 1473 1476 1479 1481 1483 1485 1486 1487 1489 1489 1489 1488
1457 1454 1450 1446 1443 1440 1437 1435 1433 1431 1429 1429 1428 1427 1426 1426 1426 1427 1429 1430 1432 1435 1438 1441 1445 1448 1452 1455 1459 1462 1466 1470 1473 1475 1478 1479 1481 1482 1483 1484 1484 1484 1483
1454 1451 1447 1444 1440 1437 1435 1432 1429 1427 1425 1424 1423 1422 1422 1422 1423 1424 1425 1427 1430 1432 1435 1438 1442 1445 1449 1452 1457 1460 1464 1467 1470 1473 1475 1476 1477 1478 1479 1479 1479 1478 1477
1452 1449 1446 1442 1439 1436 1433 1430 1427 1425 1423 1422 1421 1420 1420 1420 1421 1422 1423 1425 1428 1430 1433 1437 1440 1444 1448 1452 1455 1459 1463 1466 1468 1471 1472 1473 1474 1474 1474 1474 1474 1473 1471
1450 1448 1444 1441 1438 1435 1433 1430 1427 1425 1423 1421 1420 1419 1419 1420 1420 1421 1423 1425 1427 1430 1433 1436 1440 1444 1449 1452 1456 1459 1462 1465 1466 1467 1468 1469 1469 1469 1469 1469 1468 1467 1465
1449 1446 1444 1441 1438 1436 1433 1430 1428 1425 1424 1422 1421 1421 1421 1421 1422 1423 1424 1426 1429 1431 1435 1439 1442 1447 1450 1454 1457 1459 1461 1462 1464 1465 1465 1465 1465 1465 1465 1464 1463 1462 1460
1448 1445 1443 1441 1439 1436 1434 1432 1430 1428 1426 1425 1424 1423 1423 1423 1425 1426 1427 1429 1432 1435 1438 1442 1446 1449 1452 1455 1457 1458 1460 1461 1462 1462 1462 1462 1462 1461 1460 1459 1457 1456 1454
1447 1445 1443 1442 1440 1438 1436 1434 1432 1431 1429 1428 1427 1427 1427 1427 1428 1430 1432 1434 1437 1440 1443 1445 1449 1451 1453 1455 1456 1458 1458 1459 1460 1460 1459 1459 1458 1456 1455 1453 1451 1450 1449
1446 1445 1444 1442 1441 1439 1438 1437 1435 1434 1433 1432 1432 1432 1433 1433 1434 1435 1437 1440 1442 1444 1447 1449 1451 1453 1454 1455 1456 1457 1458 1458 1457 1457 1456 1455 1453 1452 1450 1448 1446 1444 1443
1445 1445 1444 1443 1442 1441 1440 1439 1438 1438 1437 1437 1437 1437 1438 1439 1440 1441 1443 1445 1447 1449 1450 1452 1453 1454 1455 1456 1456 1456 1456 1456 1455 1454 1452 1451 1449 1447 1446 1444 1441 1439 1437
1446 1445 1445 1444 1444 1443 1443 1442 1442 1441 1442 1442 1442 1442 1443 1444 1445 1446 1448 1449 1451 1452 1453 1454 1455 1455 1456 1456 1455 1455 1454 1453 1452 1450 1449 1447 1445 1443 1442 1440 1438 1435 1433
1446 1446 1446 1445 1445 1445 1445 1445 1445 1445 1446 1446 1447 1447 1448 1449 1450 1451 1452 1453 1454 1454 1455 1455 1456 1456 1456 1455 1454 1453 1452 1451 1449 1447 1445 1443 1441 1440 1438 1436 1434 1432 1430
1446 1447 1447 1447 1447 1448 1448 1449 1449 1450 1450 1451 1451 1452 1453 1454 1454 1455 1455 1456 1456 1456 1456 1456 1456 1455 1455 1454 1453 1451 1450 1448 1446 1444 1442 1440 1438 1436 1435 1433 1431 1429 1426
1447 1448 1448 1449 1449 1450 1451 1452 1453 1454 1454 1455 1455 1456 1456 1457 1457 1457 1457 1457 1457 1457 1456 1456 1455 1454 1453 1452 1451 1449 1448 1446 1444 1442 1440 1438 1436 1434 1432 1430 1428 1426 1423
1447 1448 1450 1451 1452 1453 1454 1455 1456 1457 1458 1458 1458 1459 1459 1459 1459 1459 1459 1458 1457 1457 1457 1456 1455 1454 1452 1451 1450 1448 1445 1444 1442 1439 1438 1436 1434 1432 1430 1428 1426 1423 1421
1447 1449 1451 1452 1454 1455 1456 1457 1458 1459 1460 1460 1460 1460 1460 1460 1460 1460 1459 1458 1458 1457 1456 1455 1454 1452 1452 1450 1448 1446 1444 1442 1440 1438 1436 1434 1432 1430 1427 1425 1423 1420 1417